Wind_Speed
10 10 10 9 11 10 10 11 13 12 12 11 14 16 17 16 17 16 16 17 18 19 20 21 21 22 23 24 24 25 25 26 27 27 27 27 27 27 27 27 28 28 28 29
8 8 9 11 13 13 13 12 13 15 15 11 14 16 17 17 16 18 18 18 19 20 20 21 21 22 23 24 24 26 26 26 27 28 28 28 28 28 28 28 28 29 29 30
7 7 10 13 14 14 13 14 15 15 13 11 12 15 17 17 16 18 19 20 20 20 20 20 21 21 23 24 25 26 27 28 28 29 29 29 30 29 29 29 29 30 29 29
8 9 10 11 12 12 12 13 14 13 11 12 12 15 18 18 18 18 19 19 20 20 20 20 21 22 23 24 24 25 26 28 29 29 30 30 31 31 31 31 31 31 30 29
8 9 10 10 11 12 11 11 12 12 13 14 15 16 21 22 19 19 18 18 19 20 21 22 22 23 24 24 25 26 27 28 29 30 30 31 31 32 32 32 32 31 29 29
10 10 11 10 11 13 11 10 10 12 13 16 18 19 20 22 19 19 18 19 19 20 22 22 23 24 24 24 25 26 27 28 29 29 29 30 31 32 32 32 32 31 30 29
7 9 10 11 12 12 11 11 11 13 15 18 19 18 20 20 19 19 18 19 20 21 23 23 23 24 24 25 26 27 28 28 28 29 29 30 30 30 31 31 31 31 30 30
10 11 10 9 10 11 10 11 13 14 15 13 13 16 19 18 17 19 19 19 20 21 22 22 23 23 24 25 26 26 27 27 26 27 28 28 28 29 29 29 30 29 29 29
9 10 9 10 10 11 11 11 11 13 14 15 15 17 16 17 16 16 17 19 20 21 21 22 22 23 24 24 25 25 26 26 25 25 26 27 27 28 28 28 28 28 28 29
9 9 9 9 10 11 11 12 12 13 13 14 13 16 20 17 15 15 17 20 21 21 22 22 23 23 24 24 24 25 25 25 25 26 26 27 27 28 28 28 29 28 28 29
12 13 11 11 11 11 12 12 13 13 13 14 15 19 20 18 17 18 20 21 21 22 23 23 24 25 25 25 25 25 26 26 26 27 27 28 28 28 28 28 29 29 29 30
14 15 15 13 13 13 13 13 13 14 14 15 16 20 21 20 19 20 20 21 22 24 24 25 26 26 26 26 26 26 27 27 27 27 28 28 29 28 28 28 28 29 29 29
15 15 15 15 15 14 13 13 14 14 15 16 17 20 21 20 20 21 22 23 23 25 25 26 27 27 27 27 27 27 27 28 28 28 28 28 28 28 28 27 27 27 28 28
16 16 15 14 12 12 12 12 13 15 15 17 18 20 22 23 24 23 22 22 23 25 26 26 27 27 27 27 28 28 28 29 29 28 28 27 27 27 27 26 26 25 25 25
14 14 13 13 12 13 14 14 15 16 17 19 20 22 24 24 25 23 22 23 24 25 25 26 27 27 28 28 28 29 29 29 28 28 27 26 25 24 24 23 22 22 22 22
13 14 13 13 13 13 15 16 16 17 18 18 19 21 22 23 23 24 25 23 24 25 25 26 27 27 27 28 29 29 29 28 27 26 24 23 22 22 21 21 21 21 21 20
13 13 13 12 12 14 14 15 16 17 17 17 19 21 22 23 23 23 23 23 24 25 25 26 26 27 27 28 28 27 26 26 25 23 22 21 20 20 19 19 18 18 18 18
13 13 12 12 12 14 13 14 14 16 17 18 20 22 22 22 22 22 23 24 24 25 26 25 26 26 26 26 26 25 24 23 22 20 19 19 18 18 17 17 17 17 17 17
12 12 12 12 13 14 15 14 15 16 17 18 20 21 21 20 21 22 23 24 25 25 24 25 25 25 24 24 23 22 21 20 19 18 18 17 17 16 15 14 15 14 15 15
10 11 12 13 13 14 15 15 15 16 17 17 19 20 21 20 21 22 22 23 23 23 23 23 22 22 21 21 20 20 19 18 17 16 15 15 15 15 13 12 12 12 13 14
9 10 11 12 14 15 14 15 14 15 16 16 18 19 20 20 19 20 21 22 22 22 21 21 20 19 18 18 18 18 17 16 15 14 13 13 13 12 10 10 10 10 10 11
9 10 11 12 14 14 14 14 14 14 15 15 17 18 19 19 19 19 20 20 20 19 18 17 17 17 17 16 16 16 15 14 13 12 11 11 10 9 9 8 8 8 8 8
9 10 11 11 12 12 12 13 13 13 14 15 17 17 18 18 18 18 18 17 16 16 16 15 15 15 15 15 14 13 13 12 11 9 9 8 6 6 6 5 4 4 4 4
9 9 11 11 12 12 12 12 13 13 13 15 16 16 16 16 16 16 15 14 14 14 13 13 13 13 13 13 12 12 12 10 9 7 6 6 6 5 4 4 3 3 3 3
9 9 10 11 11 11 12 12 12 12 13 13 15 14 14 15 14 14 13 13 12 12 12 11 12 12 12 11 11 11 10 9 7 7 6 6 6 6 6 6 5 5 5 5
7 8 9 9 9 10 11 11 11 11 11 12 13 12 12 12 12 12 11 11 11 11 11 10 11 11 10 10 10 9 9 8 7 7 7 7 8 8 8 8 9 9 9 9
Wind_Direction
180 179 179 178 180 183 207 217 225 229 235 230 236 248 258 267 270 269 267 269 273 276 278 278 279 281 282 283 282 281 280 280 279 280 280 279 278 277 276 275 275 275 276 277
173 186 189 195 201 192 192 199 216 229 244 241 233 247 261 267 272 274 274 275 276 276 278 280 281 282 283 284 282 281 280 279 279 280 279 278 277 276 276 276 276 277 277 276
184 203 210 204 203 198 194 201 216 228 238 244 243 254 262 268 274 276 278 279 280 283 284 284 284 284 285 284 283 283 281 280 279 279 279 279 279 277 278 279 279 278 278 276
197 201 216 211 200 194 199 205 217 232 243 247 253 252 261 268 269 272 278 281 285 286 288 289 287 286 287 285 286 285 284 282 281 280 279 278 278 278 278 278 280 278 278 276
198 207 209 209 204 201 210 214 221 234 246 247 254 255 261 265 269 276 276 282 287 288 290 290 289 289 288 287 286 285 285 284 282 281 280 279 278 278 279 278 279 280 279 277
199 212 208 209 213 211 213 217 225 232 241 246 246 251 261 268 275 282 282 279 284 290 291 291 291 290 289 288 287 286 285 285 284 282 281 280 280 279 279 278 278 280 279 276
210 221 216 210 214 217 212 215 234 245 245 250 246 251 259 273 282 290 296 294 294 292 292 291 292 292 291 290 290 288 288 288 286 283 282 281 281 280 280 280 279 279 277 275
207 219 221 218 217 223 223 221 237 258 270 275 274 259 252 267 280 291 297 299 297 294 293 293 293 294 294 293 292 291 291 290 288 285 284 283 284 283 283 282 281 281 279 277
214 226 230 229 234 230 229 238 245 262 269 277 277 274 269 270 273 284 292 295 296 295 295 296 296 296 297 297 296 294 295 294 289 288 288 286 286 286 284 284 282 281 279 278
215 226 219 229 237 240 231 242 246 253 269 276 276 282 282 277 276 282 292 295 297 296 297 297 298 298 299 298 297 297 296 294 292 291 289 287 287 287 286 285 283 282 280 280
228 231 228 228 230 236 241 242 243 248 257 268 274 280 283 285 289 291 294 297 300 300 300 299 298 299 299 298 298 297 296 296 295 294 291 288 287 286 286 286 284 283 281 280
227 229 229 230 232 234 239 247 248 254 259 263 273 278 282 288 292 294 297 301 302 300 300 299 299 299 299 298 298 297 296 296 295 295 293 291 289 287 286 285 284 283 282 282
237 235 235 235 235 235 239 243 249 254 261 267 273 278 282 285 287 290 293 295 298 299 300 300 300 300 300 299 298 299 298 297 296 295 293 291 289 288 287 286 286 284 283 283
247 246 246 246 248 246 247 243 251 256 263 268 271 275 282 286 289 290 291 294 299 300 300 301 301 301 300 300 300 301 300 298 296 295 293 290 289 287 287 286 285 285 285 284
250 252 252 251 247 251 255 257 258 260 266 267 268 271 277 282 287 292 293 298 301 300 300 302 302 301 301 301 302 301 301 299 297 295 294 292 289 288 287 287 286 286 287 286
253 251 250 251 252 256 261 262 263 262 266 267 268 275 280 287 294 295 297 300 302 302 302 303 302 302 302 303 303 302 301 300 298 297 294 292 291 290 289 288 287 286 286 286
257 253 248 247 248 254 257 259 263 266 267 267 270 276 284 290 294 297 299 302 303 303 305 305 304 303 303 304 304 303 303 301 299 297 294 292 291 292 290 290 289 287 287 287
251 251 253 251 250 253 260 256 262 263 267 272 277 281 285 289 293 297 300 302 303 304 306 306 306 306 305 305 306 306 305 303 299 296 294 293 292 292 291 290 290 291 289 288
252 249 249 248 250 253 258 260 263 263 267 274 280 285 291 293 295 299 302 303 304 307 309 308 308 307 307 308 309 309 308 304 300 297 295 294 293 293 291 292 293 294 293 292
261 252 250 250 250 253 259 263 268 271 278 281 285 291 297 301 301 303 305 307 309 310 310 311 311 312 311 312 313 313 312 309 305 301 298 297 296 297 296 295 297 298 298 297
266 257 256 254 253 257 264 271 276 277 281 288 292 296 298 302 305 305 307 310 312 312 313 315 316 317 318 318 318 319 318 315 312 308 309 308 304 300 298 297 300 301 302 304
266 261 256 252 254 260 270 277 280 283 288 294 298 301 305 308 308 307 309 311 313 315 319 321 323 323 325 326 325 323 323 322 319 317 317 315 311 304 302 302 303 305 309 318
263 265 263 260 258 266 275 280 284 288 292 301 305 308 310 312 312 312 313 314 316 320 322 325 328 330 331 332 334 334 333 331 328 327 328 331 331 324 324 325 324 326 330 336
269 271 266 269 271 275 280 283 284 290 296 305 311 314 315 316 317 317 317 321 325 327 329 332 334 337 339 342 345 345 346 348 349 352 360 5 7 12 21 22 23 27 22 12
274 273 268 270 275 278 284 290 292 295 301 307 314 316 317 320 323 326 328 331 333 334 337 342 345 347 348 350 353 356 358 2 6 14 22 31 40 47 49 49 48 48 49 40
280 277 274 276 280 282 287 289 292 297 302 309 316 319 321 326 331 335 337 340 344 348 350 351 352 354 357 1 4 8 14 20 27 36 45 53 56 60 60 59 61 62 64 62
Height
5815 5818 5821 5824 5827 5831 5835 5837 5837 5838 5837 5839 5839 5838 5838 5839 5839 5838 5838 5839 5840 5839 5838 5838 5838 5838 5838 5837 5837 5837 5837 5836 5836 5835 5835 5834 5833 5833 5832 5831 5831 5831 5830 5829
5815 5818 5821 5824 5827 5829 5832 5836 5838 5837 5836 5837 5837 5837 5836 5836 5836 5835 5835 5835 5836 5835 5834 5833 5834 5834 5833 5832 5832 5831 5831 5830 5830 5829 5828 5828 5827 5826 5826 5825 5825 5824 5823 5823
5815 5819 5820 5822 5825 5827 5830 5833 5834 5834 5833 5835 5836 5835 5833 5833 5833 5832 5832 5832 5832 5831 5830 5829 5829 5829 5829 5828 5827 5826 5825 5824 5823 5823 5822 5821 5821 5820 5819 5819 5818 5817 5816 5816
5814 5817 5819 5820 5823 5825 5828 5830 5831 5832 5832 5833 5834 5832 5830 5829 5829 5828 5829 5829 5828 5827 5827 5826 5825 5825 5824 5823 5821 5820 5819 5818 5817 5816 5815 5815 5814 5814 5813 5812 5811 5811 5809 5809
5814 5816 5818 5819 5822 5823 5825 5827 5829 5830 5830 5832 5831 5830 5827 5824 5824 5824 5825 5825 5824 5824 5823 5822 5821 5820 5819 5817 5816 5815 5813 5812 5811 5810 5809 5808 5807 5806 5806 5805 5804 5804 5803 5802
5812 5815 5816 5818 5820 5822 5823 5826 5827 5827 5828 5828 5826 5826 5822 5820 5820 5821 5820 5820 5820 5819 5819 5817 5816 5815 5813 5812 5810 5809 5807 5806 5804 5803 5802 5801 5800 5799 5798 5798 5797 5796 5796 5795
5812 5814 5815 5816 5819 5820 5821 5824 5824 5824 5824 5823 5822 5821 5821 5818 5818 5817 5817 5816 5816 5815 5814 5813 5811 5810 5808 5806 5805 5803 5801 5799 5797 5796 5795 5794 5793 5792 5791 5790 5790 5789 5788 5788
5809 5812 5813 5815 5817 5818 5818 5821 5822 5821 5820 5818 5817 5816 5816 5814 5815 5814 5813 5813 5812 5811 5810 5808 5806 5804 5803 5800 5799 5797 5794 5792 5790 5789 5788 5787 5786 5785 5784 5783 5782 5781 5781 5780
5808 5810 5811 5812 5814 5816 5817 5818 5819 5819 5818 5818 5815 5814 5811 5810 5810 5811 5811 5810 5809 5807 5806 5804 5802 5800 5797 5795 5793 5791 5789 5786 5784 5783 5782 5781 5779 5778 5777 5776 5775 5774 5773 5773
5806 5807 5809 5810 5812 5814 5815 5816 5816 5816 5815 5815 5814 5811 5810 5807 5805 5806 5806 5806 5805 5803 5801 5799 5797 5795 5792 5790 5788 5785 5783 5780 5778 5777 5775 5774 5772 5771 5770 5768 5767 5767 5766 5766
5805 5806 5808 5809 5810 5811 5813 5813 5813 5813 5814 5813 5812 5811 5807 5805 5804 5804 5803 5802 5800 5798 5797 5794 5792 5790 5787 5785 5782 5780 5777 5775 5772 5770 5769 5767 5765 5764 5763 5761 5760 5759 5758 5757
5802 5803 5804 5806 5807 5807 5809 5810 5810 5810 5810 5809 5809 5809 5804 5802 5801 5800 5798 5797 5796 5794 5792 5789 5787 5784 5781 5779 5776 5774 5771 5769 5766 5764 5762 5760 5758 5756 5755 5754 5752 5751 5750 5749
5798 5799 5801 5802 5804 5804 5805 5806 5806 5807 5807 5806 5805 5806 5800 5799 5797 5796 5795 5793 5791 5789 5787 5784 5781 5778 5776 5773 5770 5767 5765 5762 5760 5757 5755 5752 5750 5749 5747 5746 5744 5743 5742 5741
5795 5796 5798 5799 5799 5799 5800 5802 5803 5803 5802 5802 5801 5799 5797 5795 5794 5792 5789 5787 5786 5784 5781 5778 5775 5772 5770 5767 5764 5761 5758 5755 5752 5750 5747 5745 5743 5741 5740 5739 5737 5736 5735 5734
5791 5792 5793 5795 5796 5796 5797 5799 5799 5799 5799 5799 5798 5795 5793 5792 5789 5786 5784 5782 5781 5778 5775 5772 5769 5766 5763 5760 5757 5754 5751 5748 5745 5742 5740 5738 5736 5734 5733 5732 5731 5730 5729 5728
5787 5788 5790 5791 5793 5793 5794 5795 5795 5795 5794 5793 5793 5790 5788 5787 5784 5783 5780 5778 5775 5772 5769 5766 5763 5760 5757 5754 5751 5747 5744 5741 5738 5735 5733 5731 5730 5728 5727 5726 5725 5724 5723 5722
5783 5785 5786 5788 5789 5790 5791 5791 5791 5790 5790 5789 5788 5787 5784 5782 5781 5779 5776 5773 5771 5768 5764 5761 5758 5755 5751 5748 5744 5741 5737 5734 5732 5729 5727 5726 5724 5723 5722 5721 5720 5719 5718 5717
5780 5781 5782 5784 5787 5787 5789 5787 5787 5786 5786 5785 5784 5782 5780 5778 5776 5774 5772 5769 5766 5762 5759 5755 5752 5749 5745 5742 5738 5735 5731 5728 5726 5724 5722 5720 5719 5718 5717 5716 5715 5714 5713 5712
5776 5778 5779 5781 5782 5783 5784 5783 5783 5782 5782 5781 5779 5778 5775 5773 5771 5769 5766 5763 5760 5757 5753 5750 5747 5743 5740 5736 5733 5729 5726 5723 5721 5719 5717 5716 5715 5713 5712 5712 5711 5710 5709 5708
5774 5775 5777 5778 5779 5780 5780 5779 5779 5780 5778 5777 5775 5774 5771 5768 5767 5765 5762 5759 5756 5752 5749 5745 5742 5738 5735 5732 5728 5725 5722 5719 5717 5715 5713 5712 5711 5710 5709 5708 5707 5706 5705 5704
5772 5773 5774 5775 5776 5776 5777 5776 5777 5777 5776 5774 5771 5770 5768 5765 5763 5760 5757 5754 5751 5748 5744 5741 5738 5734 5731 5728 5725 5722 5719 5716 5714 5712 5711 5709 5708 5707 5706 5706 5705 5704 5703 5702
5770 5771 5772 5772 5773 5775 5774 5774 5774 5773 5771 5770 5768 5766 5764 5761 5758 5756 5753 5750 5747 5744 5741 5738 5735 5731 5728 5725 5722 5719 5717 5714 5712 5710 5708 5707 5706 5705 5704 5704 5703 5702 5701 5700
5769 5769 5769 5770 5772 5771 5771 5771 5771 5769 5768 5766 5764 5762 5760 5757 5755 5752 5749 5747 5744 5741 5738 5735 5732 5729 5726 5723 5721 5718 5715 5713 5711 5709 5707 5706 5705 5704 5703 5703 5702 5701 5701 5700
5766 5766 5767 5767 5767 5768 5768 5768 5767 5766 5765 5763 5761 5759 5756 5754 5751 5749 5746 5744 5741 5739 5736 5734 5731 5728 5725 5723 5720 5717 5715 5712 5710 5709 5707 5706 5705 5704 5703 5703 5702 5701 5701 5700
5764 5765 5765 5765 5765 5766 5766 5765 5764 5763 5762 5760 5758 5756 5754 5751 5749 5746 5744 5742 5739 5737 5735 5732 5730 5727 5725 5722 5720 5717 5715 5713 5711 5709 5708 5707 5706 5705 5705 5704 5703 5702 5702 5701
5762 5763 5763 5763 5763 5763 5763 5762 5761 5760 5759 5758 5756 5754 5751 5749 5747 5745 5743 5741 5738 5736 5734 5732 5729 5727 5725 5723 5720 5718 5716 5714 5712 5711 5710 5709 5708 5708 5707 5706 5705 5704 5704 5703